This is the latest recevied weather packets stored in our database for station/object KB3VSP. If no packets are shown the sender has not sent any weather packets the latest 10 day(s).
| Time | Temp. | Humidity | Pressure | Rain* | Wind** | Luminosity | Snow |
|---|---|---|---|---|---|---|---|
| 1777910361 | 17.78° C | 53% | 1010 hPa | 0 mm | - | 73 W/m² | - |
| 1777910058 | 17.78° C | 55% | 1010.3 hPa | 0 mm | - | 60 W/m² | - |
| 1777909756 | 17.78° C | 53% | 1010.2 hPa | 0 mm | - | 59 W/m² | - |
| 1777909452 | 17.78° C | 54% | 1010.5 hPa | 0 mm | - | 58 W/m² | - |
| 1777909150 | 17.22° C | 53% | 1010.5 hPa | 0 mm | - | 57 W/m² | - |
| 1777908848 | 17.22° C | 54% | 1010.7 hPa | 0 mm | - | 56 W/m² | - |
| 1777908544 | 17.22° C | 53% | 1010.8 hPa | 0 mm | - | 55 W/m² | - |
| 1777908242 | 16.67° C | 54% | 1010.8 hPa | 0 mm | - | 54 W/m² | - |
| 1777907938 | 17.22° C | 53% | 1010.7 hPa | 0 mm | - | 54 W/m² | - |
| 1777907633 | 17.22° C | 55% | 1010.9 hPa | 0 mm | - | 53 W/m² | - |
| 1777907329 | 16.11° C | 56% | 1010.8 hPa | 0 mm | - | 49 W/m² | - |
| 1777907026 | 16.67° C | 54% | 1011 hPa | 0 mm | - | 136 W/m² | - |
| 1777906724 | 16.11° C | 54% | 1010.9 hPa | 0 mm | - | 45 W/m² | - |
| 1777906419 | 16.11° C | 55% | 1010.9 hPa | 0 mm | - | 42 W/m² | - |
| 1777906116 | 16.11° C | 55% | 1010.9 hPa | 0 mm | - | 42 W/m² | - |
| 1777905813 | 15.56° C | 55% | 1010.7 hPa | 0 mm | - | 40 W/m² | - |
| 1777905510 | 16.11° C | 56% | 1010.9 hPa | 0 mm | - | 39 W/m² | - |
| 1777905207 | 15.56° C | 56% | 1011 hPa | 0 mm | - | 39 W/m² | - |
| 1777904904 | 15.56° C | 56% | 1011 hPa | 0 mm | - | 38 W/m² | - |
| 1777904601 | 15.56° C | 56% | 1010.7 hPa | 0 mm | - | 37 W/m² | - |
| 1777904299 | 15° C | 56% | 1010.7 hPa | 0 mm | - | 36 W/m² | - |
| 1777903996 | 15° C | 56% | 1010.8 hPa | 0 mm | - | 35 W/m² | - |
| 1777903692 | 15° C | 57% | 1010.7 hPa | 0 mm | - | 35 W/m² | - |
| 1777903388 | 15° C | 56% | 1010.9 hPa | 0 mm | - | 34 W/m² | - |
| 1777903085 | 15° C | 57% | 1010.8 hPa | 0 mm | - | 35 W/m² | - |
* Rain latest hour (hover to see other rain measurements)
** Current wind speed in m/s (hover to see current wind gust speed)